FW8347 Weather Reports


Display with metric or nautical units.
time (UTC)temp
F
wind
direction
speed
MPH
gust
MPH
rain 1hr
in
rain 24hr
in
rain mn
in
humidity
%
barometer
mb
20260509031547 41 140 2.0 5.0 0.00 0.06 0.06 80 1010.8
20260509030046 40 140 3.0 4.0 0.00 0.06 0.06 82 1010.9
20260509024541 41 140 2.0 4.0 0.00 0.06 0.06 84 1010.9
20260509023051 41 140 2.0 4.0 0.00 0.06 0.06 83 1010.9
20260509021546 42 140 2.0 4.0 0.00 0.06 0.06 80 1010.9
20260509020053 43 140 2.0 3.0 0.00 0.06 0.06 78 1011.0
20260509014544 43 140 2.0 4.0 0.00 0.06 0.06 76 1011.0
20260509013054 44 140 3.0 5.0 0.00 0.06 0.06 72 1010.9
20260509011542 45 140 3.0 5.0 0.00 0.06 0.06 73 1010.8
20260509010051 46 140 3.0 5.0 0.00 0.06 0.06 73 1010.5
20260509004545 46 140 2.0 4.0 0.00 0.06 0.06 71 1010.4
20260509003046 47 140 3.0 5.0 0.00 0.06 0.06 70 1010.4
20260509001543 48 102 2.0 4.0 0.00 0.06 0.06 70 1010.4
20260509000044 49 102 2.0 4.0 0.00 0.06 0.06 70 1010.3
20260508234545 49 360 1.0 4.0 0.00 0.06 0.06 72 1010.3
20260508233046 49 360 2.0 5.0 0.00 0.06 0.06 72 1010.1
20260508231542 48 360 3.0 5.0 0.00 0.06 0.06 72 1010.2
20260508230049 47 360 3.0 9.0 0.00 0.06 0.06 74 1010.3
20260508224546 48 103 3.0 7.0 0.00 0.06 0.06 76 1010.2
20260508223046 48 85 4.0 7.0 0.00 0.06 0.06 77 1010.2
20260508221545 48 82 4.0 7.0 0.00 0.06 0.06 77 1010.5
20260508220049 49 79 3.0 6.0 0.00 0.06 0.06 74 1010.6
20260508214544 50 96 5.0 8.0 0.00 0.06 0.06 68 1010.5
20260508213043 49 88 3.0 6.0 0.00 0.06 0.06 75 1010.5
20260508211546 48 99 3.0 9.0 0.00 0.06 0.06 76 1010.5
20260508210045 46 127 6.0 10.0 0.00 0.06 0.06 78 1010.7
20260508204548 46 86 6.0 9.0 0.00 0.06 0.06 81 1010.9
20260508203045 46 80 6.0 9.0 0.00 0.06 0.06 80 1011.1
20260508201546 46 97 3.0 9.0 0.00 0.06 0.06 81 1011.2
20260508200105 45 84 6.0 9.0 0.00 0.06 0.06 80 1011.2
20260508194545 45 89 7.0 9.0 0.00 0.06 0.06 80 1011.3
20260508193100 45 84 6.0 9.0 0.00 0.06 0.06 81 1011.6
20260508191546 45 88 5.0 8.0 0.00 0.06 0.06 81 1011.8
20260508190052 45 45 4.0 8.0 0.00 0.06 0.06 83 1011.7
20260508184545 44 47 5.0 9.0 0.00 0.06 0.06 85 1011.7
20260508183106 44 27 8.0 11.0 0.00 0.06 0.06 83 1011.7
20260508181600 45 24 8.0 10.0 0.00 0.06 0.06 83 1011.9
20260508180045 45 360 7.0 10.0 0.00 0.06 0.06 83 1011.9
20260508174551 45 19 8.0 10.0 0.00 0.06 0.06 83 1011.9
20260508173046 45 360 5.0 8.0 0.00 0.06 0.06 84 1012.1
20260508171547 45 360 4.0 9.0 0.00 0.06 0.06 83 1012.2
20260508170052 46 351 7.0 9.0 0.00 0.06 0.06 83 1012.3
20260508164547 46 327 5.0 9.0 0.00 0.06 0.06 83 1012.5
20260508163039 46 333 7.0 10.0 0.00 0.06 0.06 84 1012.7
20260508161547 46 340 7.0 11.0 0.00 0.06 0.06 83 1012.8
20260508160045 46 336 9.0 11.0 0.00 0.06 0.06 83 1012.8
20260508154605 45 332 11.0 14.0 0.00 0.06 0.06 83 1012.8
20260508153047 45 337 10.0 13.0 0.00 0.06 0.06 83 1012.7
20260508151548 46 325 9.0 11.0 0.00 0.06 0.06 81 1012.7
20260508150050 47 328 6.0 10.0 0.00 0.06 0.06 79 1012.5
20260508144557 46 265 5.0 9.0 0.00 0.06 0.06 79 1012.5
20260508143045 45 281 5.0 8.0 0.00 0.06 0.06 80 1012.4
20260508141541 45 277 6.0 10.0 0.01 0.06 0.06 83 1012.5
20260508140046 44 308 6.0 13.0 0.01 0.06 0.06 85 1012.5
20260508134558 44 265 6.0 11.0 0.03 0.06 0.06 88 1012.5
20260508133051 43 204 2.0 6.0 0.03 0.06 0.06 90 1012.5
20260508131547 42 221 3.0 10.0 0.02 0.05 0.05 87 1012.3
20260508130043 43 360 5.0 9.0 0.02 0.05 0.05 90 1012.5
20260508124545 43 360 3.0 6.0 0.00 0.03 0.03 89 1012.4
20260508123050 43 258 3.0 6.0 0.00 0.03 0.03 90 1012.2
20260508121547 43 360 3.0 7.0 0.00 0.03 0.03 90 1012.1
20260508120046 42 236 3.0 6.0 0.00 0.03 0.03 91 1012.0
20260508114545 42 202 2.0 6.0 0.00 0.03 0.03 91 1011.6
20260508113045 41 202 1.0 4.0 0.00 0.03 0.03 91 1011.4
20260508111546 41 202 3.0 4.0 0.00 0.03 0.03 92 1011.5
20260508110044 40 202 2.0 5.0 0.00 0.03 0.03 92 1011.2
20260508104545 40 202 2.0 4.0 0.00 0.03 0.03 92 1011.2
20260508103045 40 360 3.0 6.0 0.00 0.03 0.03 92 1011.4
20260508101541 40 213 4.0 6.0 0.00 0.03 0.03 92 1011.5
20260508100056 40 213 4.0 8.0 0.00 0.03 0.03 92 1011.6
20260508094549 40 209 5.0 9.0 0.00 0.03 0.03 92 1011.6
20260508093045 39 207 5.0 7.0 0.00 0.03 0.03 92 1011.6
20260508091547 39 202 4.0 7.0 0.00 0.03 0.03 92 1011.7
20260508090103 39 229 4.0 6.0 0.00 0.03 0.03 92 1011.7
20260508084547 39 208 4.0 6.0 0.00 0.03 0.03 92 1011.4
20260508083044 39 210 4.0 6.0 0.00 0.03 0.03 92 1011.4
20260508081559 40 205 3.0 5.0 0.00 0.03 0.03 91 1011.3
20260508080056 40 207 3.0 5.0 0.00 0.03 0.03 91 1011.3
20260508074548 41 191 4.0 8.0 0.00 0.03 0.03 91 1011.3
20260508073103 41 230 3.0 6.0 0.00 0.03 0.03 91 1011.4
20260508071544 41 360 3.0 6.0 0.00 0.03 0.03 90 1011.4
20260508070048 42 203 4.0 8.0 0.00 0.03 0.03 90 1011.5
20260508064547 42 360 3.0 8.0 0.00 0.03 0.03 90 1011.5
20260508063050 42 360 4.0 6.0 0.01 0.03 0.03 89 1011.5
20260508061549 42 360 5.0 9.0 0.01 0.03 0.03 88 1011.7
20260508060100 42 232 5.0 8.0 0.01 0.03 0.03 88 1011.6
20260508054546 43 257 4.0 12.0 0.01 0.03 0.03 87 1011.6
20260508053046 43 261 7.0 11.0 0.01 0.02 0.02 88 1011.7
20260508051602 43 248 8.0 11.0 0.01 0.02 0.02 88 1011.8
20260508050052 43 232 4.0 8.0 0.02 0.02 0.02 87 1011.7
20260508044550 43 223 5.0 8.0 0.02 0.02 0.02 86 1011.6
20260508043044 43 240 4.0 8.0 0.01 0.01 0.01 84 1011.6
20260508041547 44 240 9.0 16.0 0.01 0.01 0.01 83 1011.6
20260508040053 45 273 9.0 13.0 0.00 0.00 0.00 84 1011.5
20260508034551 44 279 6.0 12.0 0.00 0.00 0.00 83 1011.3
20260508033056 44 327 14.0 20.0 0.00 0.00 0.00 84 1011.2